RH
16 18 20 21 27 26 34 31 25 20 43 48 28 19 27 23 19 18 16 22 27 35 66 96 100 100 71 62 42 32 20 24 28 31 32 27 30 24 26 33 40 47 56 65
14 17 20 24 26 26 27 32 21 25 54 49 34 19 22 25 20 16 16 21 29 35 83 99 99 86 63 59 33 26 19 23 28 32 39 48 49 49 49 55 65 80 90 88
16 18 20 23 23 26 28 36 26 32 59 43 41 22 24 23 19 18 16 18 26 28 71 100 100 96 72 59 45 36 21 19 24 31 42 50 61 71 75 80 84 90 84 75
17 20 21 23 23 27 30 40 24 29 47 34 40 34 23 23 22 19 18 17 19 27 52 89 100 96 87 63 45 37 26 23 23 32 49 60 62 67 73 81 74 71 71 57
15 20 20 22 25 29 35 33 22 26 42 33 44 43 32 27 29 24 21 19 18 23 30 75 100 98 90 67 46 34 29 24 24 26 29 37 43 49 55 61 64 64 50 54
15 23 21 22 25 28 29 25 27 30 35 38 39 46 32 29 34 27 22 22 18 18 25 32 85 100 84 87 53 37 33 29 28 28 26 28 30 34 38 43 46 48 58 59
17 25 23 21 23 26 28 27 28 31 36 46 42 53 30 36 36 29 25 22 21 20 22 27 40 77 88 100 69 47 39 37 34 31 37 40 43 47 53 59 66 67 68 71
16 20 25 24 20 24 30 30 32 37 43 49 38 51 38 32 31 29 26 24 21 25 26 24 20 43 73 100 100 69 51 46 44 47 51 56 59 64 70 77 83 90 89 88
18 23 28 22 20 22 27 28 35 39 39 41 40 44 48 34 31 26 26 26 26 26 23 23 23 24 28 59 92 100 81 60 56 59 67 78 86 90 93 94 94 95 100 100
18 24 29 25 18 19 23 27 26 32 35 35 39 39 40 39 29 25 26 29 29 26 21 21 21 24 29 32 68 75 94 96 90 85 88 94 96 97 97 93 93 97 100 100
18 23 29 24 19 20 21 24 26 30 31 33 33 39 34 33 28 27 27 29 27 26 23 20 23 25 28 31 39 75 90 86 88 97 99 100 97 96 90 80 80 89 89 73
19 22 30 25 22 21 21 21 25 26 26 26 28 30 29 33 32 29 28 26 26 23 23 20 28 29 29 33 40 56 68 87 91 100 100 100 99 84 74 77 71 68 59 60
18 19 25 26 22 19 19 21 22 24 27 27 29 34 30 26 28 31 30 28 26 23 22 22 28 30 32 32 33 36 84 90 90 92 100 95 81 83 77 71 63 67 76 68
16 18 20 26 31 33 32 30 27 23 23 26 27 28 26 24 29 33 30 27 25 22 23 23 28 33 32 32 34 44 77 84 99 100 92 87 85 79 74 69 74 70 71 66
16 16 17 20 25 26 28 28 25 23 24 22 26 26 27 29 33 32 26 24 23 23 25 25 30 33 37 37 34 37 76 88 100 100 91 86 83 83 89 70 63 67 59 53
15 18 17 17 18 20 22 21 22 22 23 26 27 28 27 29 31 28 23 22 23 25 25 27 34 43 38 39 39 55 100 100 100 86 90 95 96 81 59 61 61 57 54 46
13 15 18 19 18 17 18 18 18 19 21 24 26 27 27 28 25 23 23 24 25 27 29 35 42 43 42 41 67 100 100 99 88 94 98 88 68 53 55 56 56 51 36 29
18 16 16 17 17 19 21 19 20 21 21 22 24 24 22 21 21 23 24 26 30 39 42 44 46 47 53 90 100 100 95 90 99 88 63 54 53 52 54 50 39 35 35 43
27 27 25 22 24 24 22 21 20 19 18 19 20 20 19 21 25 28 34 43 52 48 52 51 56 70 94 99 95 100 100 87 80 61 49 49 56 50 44 45 44 46 49 47
33 25 24 26 28 28 24 23 21 20 24 26 26 27 26 24 25 33 36 44 47 44 55 69 86 94 82 84 100 97 90 64 53 48 56 53 42 45 49 50 48 48 49 44
50 48 45 37 40 46 30 26 24 23 31 28 29 32 33 36 40 43 45 46 63 82 95 89 73 75 94 96 93 72 52 51 56 55 44 46 50 50 47 48 49 49 47 54
62 58 58 54 53 54 45 41 43 46 44 46 42 43 44 48 65 70 83 89 88 74 77 79 94 96 94 80 55 54 61 57 44 44 50 52 50 52 50 50 52 48 59 61
100 99 93 84 84 87 83 70 64 66 68 77 86 79 96 98 82 78 75 68 69 89 100 94 90 84 69 65 69 63 41 40 47 60 60 60 59 48 54 52 53 61 66 52
84 89 100 100 100 100 100 100 100 88 100 91 93 94 72 61 82 83 63 76 93 93 93 90 75 70 73 65 47 42 46 59 74 69 66 54 51 55 54 59 62 70 45 16
93 78 86 100 100 99 92 96 96 97 93 76 74 85 84 80 71 73 80 86 86 80 80 75 74 66 47 47 54 56 68 72 68 65 55 53 54 54 60 71 73 49 19 10
62 65 73 81 75 79 72 75 78 78 80 82 83 83 84 78 72 70 73 78 84 86 81 72 58 57 62 62 69 70 66 63 56 54 55 53 54 63 70 69 52 19 10 11
Wind_Speed
95 82 71 62 60 64 60 50 44 39 33 32 29 30 27 26 24 24 24 25 27 24 21 20 22 22 23 25 28 31 33 29 28 28 27 27 27 29 31 33 36 39 42 45
96 79 73 70 67 65 59 51 45 39 36 32 29 29 29 28 23 21 20 23 26 23 24 22 22 22 23 26 27 30 29 28 28 28 28 28 28 29 31 34 36 40 44 48
85 75 76 72 67 60 58 53 47 40 36 33 32 28 29 27 25 23 20 23 25 24 23 26 24 23 24 27 30 32 32 30 28 30 31 31 33 35 37 40 43 46 49 51
89 83 78 72 68 62 60 59 48 40 36 34 34 34 33 28 26 26 25 22 25 27 25 29 29 27 27 28 30 32 34 32 31 31 34 37 38 40 42 45 47 48 51 53
87 82 77 72 70 69 66 57 46 40 37 37 38 35 35 27 27 29 29 27 27 29 26 31 35 32 29 28 31 31 32 33 34 32 34 37 40 42 45 48 49 51 52 53
89 85 81 78 77 72 65 53 47 44 40 39 36 35 35 32 29 29 31 31 32 33 32 29 34 35 34 32 33 33 33 34 33 34 35 36 39 42 44 46 49 51 54 58
94 88 82 78 75 69 61 52 48 45 42 45 37 35 39 34 33 35 34 33 35 35 38 34 31 35 36 36 35 36 35 34 36 37 35 36 39 42 45 48 51 55 58 62
84 84 79 75 70 67 63 54 51 48 48 46 41 40 41 38 37 38 38 37 38 40 41 40 34 34 39 41 41 40 41 39 39 37 39 40 43 46 50 53 57 60 64 68
84 80 76 72 68 70 62 53 56 53 51 47 46 44 43 42 40 40 41 41 40 41 45 47 42 38 38 42 44 46 47 44 43 45 45 47 50 54 57 60 64 66 69 73
81 80 76 74 69 63 62 61 55 52 53 51 47 49 46 44 44 44 45 45 45 44 47 49 49 49 46 45 49 52 53 51 50 50 50 52 57 60 63 65 68 72 75 79
79 78 78 76 68 67 67 62 59 57 52 52 51 53 52 48 47 47 48 49 49 50 51 51 52 51 51 51 52 55 58 59 58 57 58 60 63 66 68 70 73 76 80 84
81 77 75 73 73 71 68 66 62 59 57 57 57 57 57 53 50 53 53 54 56 55 54 55 54 53 56 57 57 58 61 62 62 64 66 68 71 70 71 74 77 82 87 91
83 80 77 73 70 65 64 65 65 68 68 64 60 62 59 56 56 55 57 59 60 59 57 56 57 58 57 59 61 61 63 66 67 69 71 72 71 71 76 79 83 87 91 95
83 82 78 74 75 78 76 74 73 69 62 66 63 65 61 59 59 59 60 61 61 60 58 58 59 62 63 64 65 65 68 69 69 68 70 70 72 76 79 85 89 93 95 97
70 80 81 80 80 77 76 74 71 65 66 63 68 65 64 63 62 63 63 61 60 60 60 60 63 65 68 70 70 71 71 70 68 67 69 73 77 81 86 89 94 98 98 102
51 63 76 82 83 81 79 76 72 70 68 69 70 69 67 65 66 65 62 61 61 61 64 64 65 69 71 73 72 70 69 65 65 70 75 79 82 87 91 95 98 100 102 103
48 52 59 67 75 78 77 77 76 74 71 70 69 71 66 66 64 63 61 61 63 64 64 67 69 71 74 74 70 66 67 68 72 77 80 84 88 93 96 98 98 99 100 101
36 42 47 52 57 61 67 68 68 67 68 67 66 66 63 62 62 63 63 64 62 64 67 69 71 73 73 68 64 68 71 75 77 81 86 90 93 95 95 95 97 99 102 111
32 33 38 42 46 53 58 60 61 62 62 62 62 62 61 60 59 58 57 59 64 66 67 71 72 71 69 68 66 67 73 78 83 86 91 93 93 91 93 96 100 107 113 117
28 30 33 36 39 43 49 51 52 52 53 55 55 55 57 59 59 59 61 62 65 69 71 68 60 57 59 63 68 73 79 84 89 92 92 87 88 92 97 103 108 114 118 121
29 30 31 33 36 37 42 43 45 46 49 51 52 53 54 55 58 61 65 68 66 64 56 57 58 61 64 69 75 80 85 88 89 83 84 88 94 98 102 109 113 117 120 122
38 41 41 42 42 44 43 43 44 48 51 51 53 55 58 59 59 59 58 58 57 58 53 56 59 64 70 77 82 83 84 80 79 83 90 96 101 105 110 113 117 121 126 130
24 26 27 26 26 32 33 36 39 40 43 44 46 49 50 50 52 53 52 51 52 53 57 62 68 73 77 78 80 78 75 79 85 91 97 103 107 110 114 118 122 128 133 135
33 34 32 32 35 34 34 34 36 37 39 39 40 42 46 48 48 50 53 54 56 61 65 70 73 74 76 73 72 76 81 87 92 99 104 106 109 114 118 123 128 133 135 132
30 30 39 37 37 37 39 39 40 41 42 46 50 51 53 55 55 54 58 60 62 66 69 71 72 69 68 73 77 83 89 94 100 104 106 108 114 118 122 128 133 134 133 128
38 36 37 38 37 38 41 42 42 45 46 46 48 51 52 53 54 57 60 62 64 66 65 62 66 70 76 81 86 90 95 99 102 107 110 114 117 123 128 131 132 131 126 123
Wind_Direction
201 199 195 196 197 200 203 206 206 195 206 218 225 221 237 245 250 258 265 268 281 288 255 253 258 266 269 277 280 288 289 289 291 292 288 279 276 270 266 267 268 269 272 276
198 194 192 197 199 201 202 206 206 198 211 219 227 230 240 246 253 264 277 273 283 287 253 258 259 266 273 283 284 291 291 291 292 291 287 281 277 275 273 273 275 277 279 281
194 192 195 198 200 202 204 206 208 206 212 221 227 234 242 247 257 265 275 287 279 297 266 257 260 266 276 285 286 293 293 290 290 287 285 284 280 279 280 280 279 280 281 284
191 193 195 197 200 203 204 207 209 210 216 225 230 236 242 249 260 263 270 284 283 285 273 259 263 266 273 278 283 292 296 294 286 280 277 279 280 280 280 279 280 282 284 285
190 193 195 197 200 203 205 207 210 213 220 227 232 238 240 247 260 264 273 280 288 284 290 264 268 273 275 279 286 286 290 291 290 284 279 276 276 278 279 281 282 284 286 289
191 194 195 197 201 204 206 207 209 213 219 227 233 241 245 248 257 265 272 277 283 285 283 284 268 273 278 280 282 283 286 289 287 286 286 286 284 283 284 285 286 288 289 290
192 194 196 200 203 205 208 209 213 216 220 231 240 247 250 248 257 265 270 276 280 282 283 285 280 270 277 283 283 284 283 284 283 286 289 286 285 286 286 287 287 288 288 289
193 196 199 204 203 205 210 211 216 219 223 234 242 246 253 252 254 264 270 275 279 282 281 280 287 279 276 282 286 284 282 281 285 288 286 287 287 287 286 287 288 289 290 291
194 198 202 206 206 209 212 213 218 222 228 236 243 248 253 257 258 262 266 274 277 277 284 286 286 287 285 283 283 283 283 285 286 285 285 286 286 285 285 286 289 290 290 291
198 201 204 209 211 212 215 219 222 226 232 237 244 251 255 256 262 264 267 272 274 277 279 281 285 288 288 286 282 284 284 282 281 282 284 286 286 286 288 289 290 290 291 290
201 205 207 211 213 215 218 222 226 230 235 241 247 249 257 257 259 264 267 271 274 273 278 282 283 287 289 287 284 282 282 284 284 285 285 285 286 287 289 290 291 291 291 291
203 207 211 213 215 217 221 225 229 233 238 243 248 252 256 259 261 263 267 271 273 276 277 282 282 286 288 288 288 283 285 284 283 284 286 286 287 290 291 291 292 292 294 294
207 209 212 214 220 225 228 229 231 234 237 243 247 253 252 259 263 265 268 271 274 277 278 281 279 283 285 288 289 288 282 282 281 284 286 288 292 292 292 293 293 293 295 297
209 212 214 215 218 220 224 228 231 235 239 242 248 252 257 260 264 265 268 270 273 277 279 280 276 280 282 284 288 289 284 283 284 287 288 290 292 292 293 294 295 297 299 300
210 214 217 219 223 226 229 233 237 239 242 246 250 255 259 260 260 265 268 270 274 275 277 279 276 277 283 285 286 289 285 283 287 288 290 291 293 294 295 297 298 300 300 300
206 213 218 222 225 228 232 236 239 242 244 246 250 253 256 258 262 264 267 270 273 274 276 277 277 277 281 284 288 288 284 285 288 291 292 293 295 295 296 298 300 300 300 300
206 209 214 219 224 229 233 236 238 241 244 246 250 251 254 257 260 263 265 268 270 272 275 275 276 280 283 287 287 284 285 288 291 291 292 293 295 297 298 300 300 300 301 305
210 214 217 220 223 225 228 232 235 239 242 245 248 252 255 257 260 262 264 267 270 271 272 277 280 283 286 284 283 285 289 289 289 290 291 293 297 299 300 301 302 305 308 310
206 210 215 218 221 227 230 232 236 239 244 247 250 252 254 255 257 260 263 265 268 272 276 279 281 282 283 283 286 286 288 289 291 293 295 297 299 301 302 303 307 309 309 309
214 214 216 219 223 228 232 233 235 238 242 244 248 250 253 255 259 262 264 268 272 275 275 279 281 280 283 284 286 289 290 291 293 296 299 300 301 303 306 308 308 309 310 308
225 226 227 229 230 236 237 239 240 240 243 245 249 253 256 260 263 265 267 272 274 276 274 276 279 281 285 287 289 291 293 294 297 299 301 303 305 308 309 309 310 309 307 306
229 232 233 235 237 240 241 243 245 251 253 256 257 259 262 265 267 268 269 269 271 275 276 282 285 286 287 290 292 295 296 297 301 304 305 307 308 309 310 310 308 307 308 309
215 220 220 229 235 239 243 246 248 249 251 253 255 257 259 264 266 266 268 270 274 279 283 284 285 288 291 293 294 295 298 302 304 305 306 306 308 310 309 309 309 309 310 311
221 222 224 225 226 229 233 237 244 245 247 249 253 256 260 260 262 266 271 275 278 281 283 285 288 290 291 293 295 299 301 303 303 303 304 308 309 309 310 310 310 311 312 311
236 233 229 230 233 236 235 238 243 245 251 255 257 258 261 264 268 271 276 279 281 283 285 287 289 290 293 296 298 300 302 302 302 304 307 308 308 309 310 311 311 312 311 311
242 242 242 241 242 245 244 247 251 257 261 262 262 265 270 273 277 278 280 282 283 284 287 289 293 296 297 298 299 299 299 301 303 306 307 308 309 310 310 311 312 312 312 312